This is the latest recevied weather packets stored in our database for station/object HB9BTL-13. If no packets are shown the sender has not sent any weather packets the latest 10 day(s).
| Time | Temp. | Humidity | Pressure | Rain* | Wind** | Luminosity | Snow |
|---|---|---|---|---|---|---|---|
| 1777564453 | 20.56° C | 29% | 1021.4 hPa | - | - | - | - |
| 1777563548 | 20.56° C | 28% | 1021.3 hPa | - | - | - | - |
| 1777562642 | 21.11° C | 30% | 1021.1 hPa | - | - | - | - |
| 1777561737 | 20.56° C | 29% | 1021.2 hPa | - | - | - | - |
| 1777560832 | 20.56° C | 30% | 1021.1 hPa | - | - | - | - |
| 1777559926 | 20.56° C | 31% | 1021 hPa | - | - | - | - |
| 1777559021 | 20.56° C | 30% | 1021 hPa | - | - | - | - |
| 1777558115 | 20.56° C | 31% | 1021.1 hPa | - | - | - | - |
| 1777557210 | 20° C | 32% | 1021.1 hPa | - | - | - | - |
| 1777556304 | 20.56° C | 32% | 1021.2 hPa | - | - | - | - |
| 1777555399 | 20.56° C | 32% | 1021.4 hPa | - | - | - | - |
| 1777554495 | 20° C | 33% | 1021.4 hPa | - | - | - | - |
| 1777553589 | 20° C | 32% | 1021.7 hPa | - | - | - | - |
| 1777552684 | 19.44° C | 33% | 1021.7 hPa | - | - | - | - |
| 1777551778 | 19.44° C | 35% | 1022 hPa | - | - | - | - |
| 1777550873 | 19.44° C | 35% | 1021.9 hPa | - | - | - | - |
| 1777549967 | 18.89° C | 37% | 1022 hPa | - | - | - | - |
| 1777549061 | 18.33° C | 36% | 1021.9 hPa | - | - | - | - |
| 1777548156 | 18.33° C | 37% | 1022 hPa | - | - | - | - |
| 1777547251 | 18.33° C | 37% | 1022.2 hPa | - | - | - | - |
| 1777546345 | 17.78° C | 38% | 1022.2 hPa | - | - | - | - |
| 1777545440 | 17.22° C | 39% | 1022.3 hPa | - | - | - | - |
| 1777544535 | 16.67° C | 39% | 1022.5 hPa | - | - | - | - |
| 1777543630 | 16.67° C | 40% | 1022.5 hPa | - | - | - | - |
| 1777542724 | 15.56° C | 40% | 1022.7 hPa | - | - | - | - |
* Rain since midnight (hover to see other rain measurements)
** Current wind speed in m/s (hover to see current wind gust speed)